FW8607 Weather Reports


Display with metric or nautical units.
time (UTC)temp
F
wind
direction
speed
MPH
gust
MPH
rain 1hr
in
rain 24hr
in
rain mn
in
humidity
%
barometer
mb
20260509170043 67 315 3.0 9.0 0.00 0.00 0.00 78 1012.8
20260509163042 64 293 4.0 9.0 0.00 0.00 0.00 86 1012.7
20260509160022 61 338 1.0 5.0 0.00 0.00 0.00 94 1012.6
20260509153023 59 90 2.0 6.0 0.00 0.00 0.00 96 1012.7
20260509150022 57 90 1.0 5.0 0.00 0.00 0.00 97 1012.8
20260509143022 55 135 1.0 5.0 0.00 0.00 0.00 96 1012.8
20260509140022 56 90 1.0 4.0 0.00 0.00 0.00 96 1012.8
20260509133022 56 68 3.0 5.0 0.00 0.00 0.00 96 1012.6
20260509130022 56 113 2.0 4.0 0.00 0.00 0.00 96 1012.7
20260509123042 56 135 1.0 3.0 0.00 0.00 0.00 96 1012.6
20260509120023 56 225 1.0 4.0 0.00 0.00 0.00 96 1012.6
20260509113042 56 270 1.0 4.0 0.00 0.00 0.00 96 1012.7
20260509110022 57 135 1.0 4.0 0.00 0.00 0.00 96 1012.7
20260509103021 57 225 2.0 4.0 0.00 0.00 0.00 95 1012.7
20260509100021 57 225 1.0 3.0 0.00 0.00 0.00 95 1013.0
20260509093021 57 248 1.0 4.0 0.00 0.00 0.00 95 1013.3
20260509090021 58 113 1.0 6.0 0.00 0.00 0.00 95 1013.4
20260509083023 58 90 1.0 4.0 0.00 0.00 0.00 95 1013.5
20260509080041 58 0.0 2.0 0.00 0.00 0.00 95 1013.8
20260509073042 58 248 1.0 4.0 0.00 0.00 0.00 94 1013.9
20260509070022 57 0.0 0.0 0.00 0.00 0.00 94 1014.0
20260509063021 58 0.0 0.0 0.00 0.00 0.00 93 1013.9
20260509060021 58 248 1.0 3.0 0.00 0.00 0.00 93 1014.0
20260509053041 59 248 1.0 3.0 0.00 0.00 0.00 92 1014.1
20260509050022 59 248 2.0 3.0 0.00 0.00 0.00 92 1014.0
20260509043041 59 248 3.0 6.0 0.00 0.00 0.00 91 1013.7
20260509040021 60 248 4.0 7.0 0.00 0.00 0.00 89 1013.5
20260509033021 61 270 4.0 8.0 0.00 0.00 0.00 87 1013.1
20260509030020 63 270 5.0 8.0 0.00 0.00 0.00 83 1013.0
20260509023020 66 270 6.0 8.0 0.00 0.00 0.00 78 1012.9
20260509020020 69 248 6.0 10.0 0.00 0.00 0.00 73 1012.7
20260509013020 71 248 5.0 11.0 0.00 0.00 0.00 70 1012.8
20260509010021 72 248 6.0 11.0 0.00 0.00 0.00 68 1012.7
20260509003020 72 248 7.0 14.0 0.00 0.00 0.00 68 1012.6
20260509000042 73 248 7.0 14.0 0.00 0.00 0.00 66 1012.8
20260508233020 73 248 8.0 18.0 0.00 0.00 0.00 67 1012.9
20260508230020 74 248 9.0 16.0 0.00 0.00 0.00 65 1013.3
20260508223021 74 248 11.0 20.0 0.00 0.00 0.00 64 1013.4
20260508213020 79 248 9.0 16.0 0.00 0.00 0.00 58 1013.9
20260508210020 78 293 7.0 15.0 0.00 0.00 0.00 59 1014.0
20260508203019 77 293 8.0 14.0 0.00 0.00 0.00 61 1014.1
20260508200118 77 338 6.0 13.0 0.00 0.00 0.00 60 1014.2
20260508193118 75 338 6.0 12.0 0.00 0.00 0.00 63 1014.5
20260508190118 72 338 6.0 14.0 0.00 0.00 0.00 69 1014.9
20260508183118 70 338 7.0 13.0 0.00 0.00 0.00 74 1015.1
20260508180117 67 315 4.0 10.0 0.00 0.00 0.00 78 1015.1
20260508173139 64 270 2.0 6.0 0.00 0.00 0.00 89 1015.1